Regional Weather Roundup
Issued by NWS

Home | Current Version | Previous Version | Graphics & Text | Print | Product List | Glossary On
Versions: 1 2 3 4 5 6 7 8 9 10 11 12 13 14 15 16 17 18 19 20 21 22 23 24 25 26 27 28 29 30 31 32 33 34 35 36 37 38 39 40 41 42 43 44 45 46 47 48 49 50
000
ASUS44 KMEG 250400
RWRTN
TENNESSEE HOURLY STATE WEATHER ROUNDUP
NATIONAL WEATHER SERVICE MEMPHIS TN
1000 PM CST WED DEC 24 2014

TNZ002-004-019-021-049-052-054-088>092-250500-
WEST TENNESSEE

CITY           SKY/WX    TMP DP  RH WIND       PRES   REMARKS
MEMPHIS INTL   CLOUDY    43  36  76 W8        29.99R
NWS MEMPHIS      N/A     42 N/A N/A MISG        N/A
JACKSON        CLOUDY    41  35  79 W12       29.96R
DYERSBURG      PTCLDY    39  27  60 W9G16     29.97R WCI  33
UNION CITY     MOCLDY    37  36  93 W8        29.91R WCI  31
PARIS          CLOUDY    37  34  87 W9        29.91R WCI  31
LEXINGTON      CLOUDY    39  36  87 SW8       29.93R WCI  34
SAVANNAH       CLOUDY    39  36  87 SW6       29.96R WCI  35
$$

TNZ008-025-027-028-033-062-065-066-250500-
NORTH MIDDLE TENNESSEE

CITY           SKY/WX    TMP DP  RH WIND       PRES   REMARKS
NASHVILLE      CLOUDY    42  36  79 W7        29.91R
CLARKSVILLE    CLOUDY    41  36  82 SW9       29.89R
COOKEVILLE     MOCLDY    41  37  87 CALM      29.88R
CROSSVILLE     RAIN      41  37  86 W8G17     29.85R
$$

TNZ061-075-076-078-094-096-097-250500-
SOUTH MIDDLE TENNESSEE

CITY           SKY/WX    TMP DP  RH WIND       PRES   REMARKS
FAYETTEVILLE   CLOUDY    39  34  81 MISG      29.92S
TULLAHOMA      CLOUDY    37  34  87 CALM      29.91S
WINCHESTER     CLOUDY    41  37  87 W7        29.92R
SHELBYVILLE    CLOUDY    41  37  87 W6        29.92S
$$

TNZ017-018-042-046-047-250500-
NORTHEAST TENNESSEE

CITY           SKY/WX    TMP DP  RH WIND       PRES   REMARKS
TRI CITIES     CLOUDY    46  39  76 W14       29.83R
ELIZABETHTON   CLOUDY    43  39  87 SW12      29.82R
$$

TNZ012-013-036-069-073-074-250500-
CENTRAL EAST TENNESSEE

CITY           SKY/WX    TMP DP  RH WIND       PRES   REMARKS
KNOXVILLE      LGT RAIN  45  40  82 SW8       29.87R
OAK RIDGE      CLOUDY    46  41  82 CALM      29.86S
GATLINBURG     MOCLDY    45  37  76 W8        29.85S
$$

TNZ083-085-099-250500-
SOUTHEAST TENNESSEE

CITY           SKY/WX    TMP DP  RH WIND       PRES   REMARKS
CHATTANOOGA    LGT RAIN  45  38  76 W12       29.91R
$$

SKY/WX REPORTED AS FAIR MEANS FEW OR NO CLOUDS BELOW
12 THOUSAND FEET.



USA.gov is the U.S. government's official web portal to all federal, state and local government web resources and services.